Home   Weather   Taiyuan   Past weeks

Flag for China Past Weather in Taiyuan, Shanxi, China — Yesterday and Last 2 Weeks

Now
30 °F

Sunny.


Feels Like: 24 °F
Forecast: 10 / 41 °F
Wind: 6 mph from North

Location: Taiyuan Airport

Current Time: Feb 23, 2017 at 10:59:25 am

Latest Report: Feb 23, 2017 at 10:30 am


Visibility: 10 mi

Pressure: 30.39 "Hg (27.52 "Hg at 790m altitude)

Humidity: 34%

Dew Point: 5 °F

Location of TaiyuanLocation

Past Weather in Taiyuan — Graph

°F

Taiyuan Temperature Yesterday

Maximum temperature yesterday: 37 °F (at 3:30 pm)
Minimum temperature yesterday: 16 °F (at 3:00 am)
Average temperature yesterday: 28 °F

High & Low Weather Summary for the Past Weeks

 TemperatureHumidityPressure
High64 °F (Feb 19, 3:30 pm)100% (Feb 21, 6:00 am)30.48 "Hg (Feb 21, 6:00 am)
Low10 °F (Feb 10, 7:30 am)8% (Feb 13, 4:00 pm)29.62 "Hg (Feb 19, 2:00 pm)
Average33 °F44%30.22 "Hg
* Reported Feb 8 9:00 am — Feb 23 9:30 am, Taiyuan, Weather by CustomWeather, © 2017

Note: Actual official high and low records may vary slightly from our data, if they occured in-between our weather recording intervals... More about our weather records

Advertising

Taiyuan Weather History for the Previous 24 Hours

Scroll right to see more
 ConditionsComfort  
Time TempWeatherWind HumidityBarometerVisibility
9:30 am
Thu, Feb 23
28 °FSunny.8 mph37%30.39 "Hg10 mi
9:00 am27 °FPassing clouds.8 mph39%30.39 "HgN/A
8:30 am25 °FPassing clouds.6 mph42%30.39 "HgN/A
8:00 am25 °FSunny.6 mph42%30.39 "Hg10 mi
7:30 am25 °FSunny.8 mph42%30.39 "Hg10 mi
7:00 am21 °FClear.3 mph54%30.36 "Hg10 mi
6:30 am25 °FClear.6 mph50%30.36 "Hg10 mi
6:00 am25 °FClear.3 mph54%30.33 "Hg10 mi
5:30 am25 °FClear.6 mph59%30.33 "Hg10 mi
5:00 am23 °FClear.3 mph63%30.33 "Hg10 mi
4:30 am21 °FClear.3 mph63%30.36 "Hg10 mi
4:00 am23 °FClear.1 mph58%30.36 "Hg10 mi
3:30 am23 °FClear.3 mph58%30.36 "Hg10 mi
3:00 am25 °FClear.3 mph54%30.36 "Hg10 mi
2:30 am28 °FClear.8 mph43%30.36 "Hg10 mi
2:00 am28 °FClear.8 mph43%30.36 "Hg10 mi
1:30 am28 °FClear.3 mph47%30.36 "Hg10 mi
1:00 am28 °FClear.3 mph47%30.33 "Hg10 mi
12:30 am28 °FClear.6 mph47%30.33 "Hg10 mi
12:00 am30 °FClear.3 mph47%30.30 "Hg10 mi
11:30 pm
Wed, Feb 22
30 °FClear.8 mph47%30.30 "Hg10 mi
11:00 pm28 °FClear.6 mph55%30.30 "Hg10 mi
10:30 pm30 °FClear.6 mph51%30.30 "Hg10 mi
10:00 pm30 °FClear.8 mph55%30.30 "Hg10 mi
9:30 pm32 °FClear.6 mph51%30.30 "Hg10 mi
9:00 pm32 °FClear.6 mph47%30.27 "Hg10 mi
8:30 pm34 °FPassing clouds.3 mph44%30.27 "HgN/A
8:00 pm32 °FClear.6 mph47%30.24 "Hg10 mi
7:30 pm32 °FPassing clouds.3 mph47%30.24 "HgN/A
7:00 pm34 °FClear.6 mph44%30.24 "Hg10 mi
6:30 pm34 °FClear.6 mph44%30.21 "Hg10 mi
6:00 pm36 °FPassing clouds.6 mph44%30.21 "HgN/A
5:30 pm36 °FPassing clouds.3 mph48%30.18 "HgN/A
5:00 pm37 °FSunny.6 mph48%30.18 "Hg10 mi
4:30 pm37 °FHaze.1 mph56%30.18 "Hg3 mi
4:00 pm37 °FHaze.1 mph56%30.15 "Hg3 mi
3:30 pm37 °FHaze.1 mph56%30.18 "Hg2 mi
3:00 pm36 °FHaze.3 mph60%30.18 "Hg2 mi
2:30 pm34 °FHaze.3 mph65%30.18 "Hg2 mi
2:00 pm34 °FHaze.3 mph65%30.18 "Hg2 mi
1:30 pm34 °FHaze.3 mph65%30.18 "Hg2 mi
1:00 pm34 °FHaze.1 mph65%30.21 "Hg2 mi
12:30 pm30 °FHaze.1 mph80%30.21 "Hg1 mi
12:00 pm28 °FIce fog.3 mph80%30.24 "Hg1 mi
11:30 am28 °FIce fog.3 mph80%30.24 "Hg1 mi
11:00 am28 °FIce fog.3 mph80%30.24 "Hg1 mi
10:30 am27 °FIce fog.3 mph86%30.24 "Hg1 mi
10:00 am27 °FIce fog.1 mph93%30.24 "Hg1 mi
Weather by CustomWeather, © 2017

See weather overviewHow to use our weather pages